,,Stat5,,Stat1,,Stat2,,Stat3,,Stat4,,Wind1,,Wind1,
time,status,PA1M_AVG,status,PR1M_SUM,status,RH1M_AVG,status,SR1M_AVG,status,TA1M_AVG,status,W1dAve1m,status,W1sAve1m,
2001-08-08, 00:00:00,VALID,918.719,VALID,0,VALID,87.803,VALID,0.0169808,VALID,20.5177,VALID,287,VALID,0.546875,
2001-08-08, 00:01:00,VALID,918.721,VALID,0,VALID,88.0243,VALID,0,VALID,20.4857,VALID,278,VALID,0.216346,
2001-08-08, 00:02:00,VALID,918.697,VALID,0,VALID,88.2888,VALID,0.0169808,VALID,20.4467,VALID,36,VALID,0.476763,
2001-08-08, 00:03:00,VALID,918.68,VALID,0,VALID,88.4477,VALID,0.0169808,VALID,20.4273,VALID,317,VALID,0.33162,
2001-08-08, 00:04:00,VALID,918.643,VALID,0,VALID,88.9093,VALID,0.0339617,VALID,20.4176,VALID,20,VALID,0.943704,
2001-08-08, 00:05:00,VALID,918.594,VALID,0,VALID,89.1573,VALID,0.0169808,VALID,20.356,VALID,17,VALID,0.85773,
2001-08-08, 00:06:00,VALID,918.592,VALID,0,VALID,89.7244,VALID,0.0169808,VALID,20.2983,VALID,15,VALID,0.655828,
2001-08-08, 00:07:00,VALID,918.593,VALID,0,VALID,90.0258,VALID,0.0339617,VALID,20.2302,VALID,29,VALID,0.778783,
2001-08-08, 00:08:00,VALID,918.599,VALID,0,VALID,90.6069,VALID,0,VALID,20.1947,VALID,15,VALID,0.884375,
2001-08-08, 00:09:00,VALID,918.619,VALID,0,VALID,90.6756,VALID,0.0509425,VALID,20.1718,VALID,20,VALID,0.868215,
2001-08-08, 00:10:00,VALID,918.6,VALID,0,VALID,90.7404,VALID,0,VALID,20.1654,VALID,23,VALID,0.622596,
2001-08-08, 00:11:00,VALID,918.601,VALID,0,VALID,90.7442,VALID,0.0339617,VALID,20.1721,VALID,19,VALID,0.326686,
2001-08-08, 00:12:00,VALID,918.603,VALID,0,VALID,90.8676,VALID,0.0169808,VALID,20.1721,VALID,19,VALID,0.0520148,
2001-08-08, 00:13:00,VALID,918.596,VALID,0,VALID,90.8027,VALID,0.0169808,VALID,20.1753,VALID,19,VALID,0.580134,
2001-08-08, 00:14:00,VALID,918.592,VALID,0,VALID,90.8981,VALID,-0.0679233,VALID,20.1927,VALID,11,VALID,0.362664,
2001-08-08, 00:15:00,VALID,918.575,VALID,0,VALID,90.6679,VALID,-0.0849042,VALID,20.2022,VALID,10,VALID,0.46516,
2001-08-08, 00:16:00,VALID,918.567,VALID,0,VALID,90.5624,VALID,-0.0509425,VALID,20.1898,VALID,10,VALID,0.0912829,
2001-08-08, 00:17:00,VALID,918.547,VALID,0,VALID,90.3933,VALID,-0.0679233,VALID,20.1704,VALID,56,VALID,0.672476,
2001-08-08, 00:18:00,VALID,918.526,VALID,0,VALID,90.6438,VALID,-0.0679233,VALID,20.1733,VALID,21,VALID,0.832143,
2001-08-08, 00:19:00,VALID,918.518,VALID,0,VALID,90.8231,VALID,-0.0679233,VALID,20.193,VALID,18,VALID,0.575195,
2001-08-08, 00:20:00,VALID,918.506,VALID,0,VALID,90.8778,VALID,-0.0679233,VALID,20.2094,VALID,16,VALID,0.389936,
2001-08-08, 00:21:00,VALID,918.491,VALID,0,VALID,90.8663,VALID,-0.0679233,VALID,20.1895,VALID,359,VALID,0.273015,
2001-08-08, 00:22:00,VALID,918.476,VALID,0,VALID,90.832,VALID,-0.0169808,VALID,20.1798,VALID,16,VALID,0.404871,
2001-08-08, 00:23:00,VALID,918.464,VALID,0,VALID,91.038,VALID,-0.0849042,VALID,20.1835,VALID,34,VALID,0.51837,
2001-08-08, 00:24:00,VALID,918.429,VALID,0,VALID,91.3203,VALID,-0.0849042,VALID,20.1865,VALID,10,VALID,0.306885,
2001-08-08, 00:25:00,VALID,918.409,VALID,0,VALID,91.2745,VALID,-0.0679233,VALID,20.1858,VALID,11,VALID,0.408053,
2001-08-08, 00:26:00,VALID,918.381,VALID,0,VALID,91.1295,VALID,-0.0679233,VALID,20.1637,VALID,13,VALID,1.10893,
2001-08-08, 00:27:00,VALID,918.357,VALID,0,VALID,91.4449,VALID,-0.0509425,VALID,20.1316,VALID,34,VALID,0.894637,
2001-08-08, 00:28:00,VALID,918.344,VALID,0,VALID,91.0876,VALID,-0.0339617,VALID,20.102,VALID,13,VALID,0.783929,
2001-08-08, 00:29:00,VALID,918.342,VALID,0,VALID,91.0253,VALID,-0.0849042,VALID,20.1023,VALID,16,VALID,1.14231,
2001-08-08, 00:30:00,VALID,918.321,VALID,0,VALID,90.9846,VALID,-0.0169808,VALID,20.1157,VALID,21,VALID,0.862664,
2001-08-08, 00:31:00,VALID,918.304,VALID,0,VALID,90.9553,VALID,-0.0509425,VALID,20.1025,VALID,1,VALID,0.88713,
2001-08-08, 00:32:00,VALID,918.27,VALID,0,VALID,90.7646,VALID,-0.0849042,VALID,20.0767,VALID,19,VALID,0.979464,
2001-08-08, 00:33:00,VALID,918.237,VALID,0,VALID,90.4759,VALID,-0.0849042,VALID,20.1058,VALID,10,VALID,1.07834,
2001-08-08, 00:34:01,VALID,918.192,VALID,0,VALID,90.2318,VALID,-0.0679233,VALID,20.1443,VALID,17,VALID,1.4352,
2001-08-08, 00:35:00,VALID,918.161,VALID,0,VALID,90.0754,VALID,-0.0679233,VALID,20.1997,VALID,24,VALID,1.75296,
2001-08-08, 00:36:00,VALID,918.116,VALID,0,VALID,90.125,VALID,-0.0509425,VALID,20.2191,VALID,14,VALID,1.15771,
2001-08-08, 00:37:00,VALID,918.1,VALID,0,VALID,90.1339,VALID,-0.0849042,VALID,20.2352,VALID,23,VALID,0.914463,
2001-08-08, 00:38:00,VALID,918.073,VALID,0,VALID,90.2636,VALID,-0.0339617,VALID,20.225,VALID,17,VALID,1.0558,
2001-08-08, 00:39:00,VALID,918.062,VALID,0,VALID,90.2915,VALID,-0.101885,VALID,20.1903,VALID,15,VALID,1.18391,
2001-08-08, 00:40:00,VALID,918.041,VALID,0,VALID,90.4632,VALID,-0.0849042,VALID,20.1502,VALID,11,VALID,1.14522,
2001-08-08, 00:41:00,VALID,918.043,VALID,0,VALID,90.3335,VALID,-0.0339617,VALID,20.1443,VALID,15,VALID,1.45861,
2001-08-08, 00:42:00,VALID,918.038,VALID,0,VALID,90.3869,VALID,-0.101885,VALID,20.1443,VALID,14,VALID,1.69757,
2001-08-08, 00:43:00,VALID,918.033,VALID,0,VALID,90.2674,VALID,-0.0849042,VALID,20.1413,VALID,354,VALID,1.40317,
2001-08-08, 00:44:00,VALID,918.027,VALID,0,VALID,90.1339,VALID,-0.0849042,VALID,20.1217,VALID,350,VALID,0.808482,
2001-08-08, 00:45:00,VALID,918.026,VALID,0,VALID,90.2674,VALID,-0.101885,VALID,20.109,VALID,10,VALID,1.52238,
2001-08-08, 00:46:01,VALID,918.007,VALID,0,VALID,90.3488,VALID,-0.0849042,VALID,20.1092,VALID,357,VALID,1.11236,
2001-08-08, 00:47:00,VALID,917.993,VALID,0,VALID,90.5357,VALID,-0.101885,VALID,20.0968,VALID,19,VALID,0.768581,
2001-08-08, 00:48:01,VALID,917.969,VALID,0,VALID,90.7977,VALID,-0.0849042,VALID,20.0836,VALID,21,VALID,1.06396,
2001-08-08, 00:49:00,VALID,917.945,VALID,0,VALID,91.0965,VALID,-0.0849042,VALID,20.0705,VALID,11,VALID,1.15204,
2001-08-08, 00:50:00,VALID,917.925,VALID,0,VALID,91.1753,VALID,-0.101885,VALID,20.0543,VALID,16,VALID,1.39375,
2001-08-08, 00:51:00,VALID,917.917,VALID,0,VALID,91.2554,VALID,-0.101885,VALID,20.025,VALID,15,VALID,1.42948,
2001-08-08, 00:52:00,VALID,917.911,VALID,0,VALID,91.1931,VALID,-0.0679233,VALID,20.0223,VALID,16,VALID,2.17923,
2001-08-08, 00:53:00,VALID,917.899,VALID,0,VALID,91.0253,VALID,-0.118866,VALID,20.022,VALID,12,VALID,2.04371,
2001-08-08, 00:54:00,VALID,917.898,VALID,0,VALID,91.0062,VALID,-0.101885,VALID,20.0188,VALID,17,VALID,2.08326,
2001-08-08, 00:55:00,VALID,917.915,VALID,0,VALID,90.9757,VALID,-0.101885,VALID,20.0513,VALID,8,VALID,1.27775,
2001-08-08, 00:56:00,VALID,917.927,VALID,0,VALID,91.0164,VALID,-0.0849042,VALID,20.0446,VALID,8,VALID,1.95692,
2001-08-08, 00:57:01,VALID,917.928,VALID,0,VALID,90.893,VALID,-0.0509425,VALID,20.0444,VALID,17,VALID,2.61444,
2001-08-08, 00:58:01,VALID,917.924,VALID,0,VALID,91.0329,VALID,-0.0509425,VALID,20.061,VALID,11,VALID,1.44141,
2001-08-08, 00:59:00,VALID,917.934,VALID,0,VALID,90.9693,VALID,0,VALID,20.0431,VALID,9,VALID,1.6875,
2001-08-08, 01:00:00,VALID,917.945,VALID,0,VALID,91.113,VALID,-0.0169808,VALID,20.0372,VALID,15,VALID,2.38306,
2001-08-08, 01:01:00,VALID,917.921,VALID,0,VALID,91.0736,VALID,0,VALID,20.0396,VALID,11,VALID,1.52424,
2001-08-08, 01:02:00,VALID,917.944,VALID,0,VALID,91.0596,VALID,-0.0169808,VALID,20.0501,VALID,335,VALID,1.88192,
2001-08-08, 01:03:00,VALID,917.932,VALID,0,VALID,90.9617,VALID,0,VALID,20.0724,VALID,17,VALID,1.79286,
2001-08-08, 01:04:00,VALID,917.944,VALID,0,VALID,91.0825,VALID,0,VALID,20.0724,VALID,16,VALID,1.41406,
2001-08-08, 01:05:00,VALID,917.94,VALID,0,VALID,91.1397,VALID,0,VALID,20.0657,VALID,10,VALID,1.64865,
2001-08-08, 01:06:00,VALID,917.919,VALID,0,VALID,91.1639,VALID,-0.0339617,VALID,20.0764,VALID,11,VALID,1.32545,
2001-08-08, 01:07:00,VALID,917.925,VALID,0,VALID,91.2097,VALID,-0.0339617,VALID,20.0764,VALID,14,VALID,1.12315,
2001-08-08, 01:08:00,VALID,917.904,VALID,0,VALID,91.2109,VALID,-0.0169808,VALID,20.0856,VALID,2,VALID,0.975446,
2001-08-08, 01:09:00,VALID,917.918,VALID,0,VALID,91.1931,VALID,0,VALID,20.0826,VALID,16,VALID,1.35389,
2001-08-08, 01:10:01,VALID,917.914,VALID,0,VALID,91.3801,VALID,-0.0169808,VALID,20.0719,VALID,13,VALID,0.971278,
2001-08-08, 01:11:00,VALID,917.915,VALID,0,VALID,91.5797,VALID,0,VALID,20.0759,VALID,21,VALID,1.46643,
2001-08-08, 01:12:00,VALID,917.911,VALID,0,VALID,91.6522,VALID,-0.0339617,VALID,20.0695,VALID,22,VALID,1.59814,
2001-08-08, 01:13:00,VALID,917.91,VALID,0,VALID,91.8442,VALID,0,VALID,20.0657,VALID,11,VALID,0.966546,
2001-08-08, 01:14:00,VALID,917.9,VALID,0,VALID,92.0426,VALID,-0.0169808,VALID,20.0667,VALID,23,VALID,1.56562,
2001-08-08, 01:15:00,VALID,917.867,VALID,0,VALID,92.2905,VALID,-0.0339617,VALID,20.0372,VALID,25,VALID,1.79307,
2001-08-08, 01:16:00,VALID,917.863,VALID,0,VALID,92.5855,VALID,-0.0509425,VALID,20.0342,VALID,24,VALID,1.67739,
2001-08-08, 01:17:00,VALID,917.865,VALID,0,VALID,92.6478,VALID,-0.0339617,VALID,20.0108,VALID,23,VALID,0.763725,
2001-08-08, 01:18:00,VALID,917.86,VALID,0,VALID,92.6389,VALID,-0.0169808,VALID,20.0049,VALID,16,VALID,0.951069,
2001-08-08, 01:19:00,VALID,917.856,VALID,0,VALID,92.7826,VALID,0,VALID,20.0151,VALID,23,VALID,1.25247,
2001-08-08, 01:20:00,VALID,917.845,VALID,0,VALID,92.8818,VALID,0,VALID,19.9919,VALID,16,VALID,1.14487,
2001-08-08, 01:21:01,VALID,917.83,VALID,0,VALID,92.9937,VALID,-0.0339617,VALID,19.9723,VALID,23,VALID,1.20988,
2001-08-08, 01:22:01,VALID,917.826,VALID,0,VALID,93.1908,VALID,-0.0509425,VALID,19.9857,VALID,23,VALID,0.936121,
2001-08-08, 01:23:00,VALID,917.81,VALID,0,VALID,93.1425,VALID,0,VALID,19.9686,VALID,15,VALID,1.08383,
2001-08-08, 01:24:01,VALID,917.811,VALID,0,VALID,93.1094,VALID,0,VALID,19.976,VALID,352,VALID,0.467285,
2001-08-08, 01:25:00,VALID,917.811,VALID,0,VALID,93.1552,VALID,-0.0169808,VALID,19.9723,VALID,21,VALID,1.35216,
2001-08-08, 01:26:00,VALID,917.815,VALID,0,VALID,93.2582,VALID,-0.0169808,VALID,19.9788,VALID,20,VALID,1.07009,
2001-08-08, 01:27:00,VALID,917.818,VALID,0,VALID,93.1399,VALID,0,VALID,19.9984,VALID,360,VALID,0.509291,
2001-08-08, 01:28:00,VALID,917.828,VALID,0,VALID,92.9924,VALID,-0.0339617,VALID,20.0175,VALID,25,VALID,0.56296,
2001-08-08, 01:29:00,VALID,917.838,VALID,0,VALID,92.9683,VALID,-0.0169808,VALID,20.0173,VALID,23,VALID,0.815245,
2001-08-08, 01:30:00,VALID,917.827,VALID,0,VALID,93.0026,VALID,-0.0339617,VALID,20.0304,VALID,17,VALID,1.2465,
2001-08-08, 01:31:00,VALID,917.817,VALID,0,VALID,93.0179,VALID,-0.0169808,VALID,20.0078,VALID,13,VALID,1.32854,
2001-08-08, 01:32:00,VALID,917.8,VALID,0,VALID,93.0675,VALID,-0.0169808,VALID,20.0116,VALID,12,VALID,1.06094,
2001-08-08, 01:33:01,VALID,917.793,VALID,0,VALID,93.042,VALID,0,VALID,20.0113,VALID,19,VALID,1.25063,
2001-08-08, 01:34:01,VALID,917.787,VALID,0,VALID,93.0001,VALID,0,VALID,20.024,VALID,11,VALID,1.29205,
2001-08-08, 01:35:00,VALID,917.769,VALID,0,VALID,92.7839,VALID,-0.0169808,VALID,20.0106,VALID,3,VALID,0.883024,
2001-08-08, 01:36:00,VALID,917.766,VALID,0,VALID,92.8106,VALID,0,VALID,20.0337,VALID,15,VALID,1.08081,
2001-08-08, 01:37:00,VALID,917.765,VALID,0,VALID,92.8259,VALID,-0.0169808,VALID,20.0531,VALID,346,VALID,0.623197,
2001-08-08, 01:38:00,VALID,917.759,VALID,0,VALID,92.7966,VALID,0,VALID,20.0595,VALID,11,VALID,1.0442,
2001-08-08, 01:39:00,VALID,917.758,VALID,0,VALID,92.8526,VALID,0,VALID,20.0434,VALID,16,VALID,1.36972,
2001-08-08, 01:40:00,VALID,917.742,VALID,0,VALID,92.6097,VALID,0,VALID,20.0103,VALID,2,VALID,1.47518,
2001-08-08, 01:41:00,VALID,917.722,VALID,0,VALID,92.5525,VALID,-0.0339617,VALID,20.0304,VALID,19,VALID,1,
2001-08-08, 01:42:00,VALID,917.729,VALID,0,VALID,92.5932,VALID,0,VALID,20.0501,VALID,26,VALID,1.17845,
2001-08-08, 01:43:00,VALID,917.729,VALID,0,VALID,92.6745,VALID,0,VALID,20.0565,VALID,27,VALID,0.930715,
2001-08-08, 01:44:00,VALID,917.708,VALID,0,VALID,92.6542,VALID,0,VALID,20.0697,VALID,28,VALID,0.962946,
2001-08-08, 01:45:00,VALID,917.698,VALID,0,VALID,92.714,VALID,-0.0169808,VALID,20.0759,VALID,27,VALID,0.813767,
2001-08-08, 01:46:01,VALID,917.688,VALID,0,VALID,92.7521,VALID,-0.0339617,VALID,20.0926,VALID,20,VALID,0.537454,
2001-08-08, 01:47:00,VALID,917.667,VALID,0,VALID,92.6936,VALID,0,VALID,20.0921,VALID,22,VALID,0.317568,
2001-08-08, 01:48:00,VALID,917.659,VALID,0,VALID,92.6987,VALID,0,VALID,20.0759,VALID,44,VALID,0.201172,
2001-08-08, 01:49:00,VALID,917.638,VALID,0,VALID,92.7216,VALID,0,VALID,20.0558,VALID,23,VALID,0.951122,
2001-08-08, 01:50:00,VALID,917.613,VALID,0,VALID,92.8793,VALID,0,VALID,20.0372,VALID,22,VALID,0.784821,
2001-08-08, 01:51:00,VALID,917.604,VALID,0,VALID,92.995,VALID,0,VALID,20.021,VALID,21,VALID,0.851351,
2001-08-08, 01:52:00,VALID,917.591,VALID,0,VALID,93.042,VALID,-0.0169808,VALID,20.0242,VALID,20,VALID,0.37454,
2001-08-08, 01:53:00,VALID,917.578,VALID,0,VALID,92.967,VALID,0,VALID,20.0011,VALID,24,VALID,0.332348,
2001-08-08, 01:54:00,VALID,917.552,VALID,0,VALID,92.953,VALID,0,VALID,19.979,VALID,40,VALID,0.28824,
2001-08-08, 01:55:00,VALID,917.546,VALID,0,VALID,93.0497,VALID,0,VALID,19.9626,VALID,8,VALID,0.390214,
2001-08-08, 01:56:00,VALID,917.53,VALID,0,VALID,93.0802,VALID,0,VALID,19.9594,VALID,27,VALID,0.43192,
2001-08-08, 01:57:01,VALID,917.528,VALID,0,VALID,93.0637,VALID,0,VALID,19.9596,VALID,15,VALID,0.72973,
2001-08-08, 01:58:01,VALID,917.52,VALID,0,VALID,93.0204,VALID,0,VALID,19.9527,VALID,23,VALID,0.784237,
2001-08-08, 01:59:01,VALID,917.523,VALID,0,VALID,93.0179,VALID,-0.0169808,VALID,19.9634,VALID,20,VALID,0.798353,
2001-08-08, 02:00:01,VALID,917.51,VALID,0,VALID,92.9988,VALID,0,VALID,19.9472,VALID,15,VALID,1.21362,
2001-08-08, 02:01:01,VALID,917.507,VALID,0,VALID,93.0306,VALID,-0.0339617,VALID,19.9273,VALID,25,VALID,1.23718,
2001-08-08, 02:02:01,VALID,917.499,VALID,0,VALID,92.9975,VALID,-0.0169808,VALID,19.9313,VALID,29,VALID,0.760268,
2001-08-08, 02:03:00,VALID,917.486,VALID,0,VALID,92.995,VALID,-0.0339617,VALID,19.9246,VALID,12,VALID,1.23585,
2001-08-08, 02:04:00,VALID,917.465,VALID,0,VALID,92.925,VALID,-0.0509425,VALID,19.9179,VALID,12,VALID,1.35179,
2001-08-08, 02:05:00,VALID,917.45,VALID,0,VALID,92.9441,VALID,-0.0339617,VALID,19.9246,VALID,10,VALID,0.821791,
2001-08-08, 02:06:00,VALID,917.432,VALID,0,VALID,92.9721,VALID,-0.0339617,VALID,19.9189,VALID,19,VALID,0.778988,
2001-08-08, 02:07:00,VALID,917.424,VALID,0,VALID,93.0586,VALID,-0.0169808,VALID,19.9022,VALID,10,VALID,0.794408,
2001-08-08, 02:08:01,VALID,917.43,VALID,0,VALID,93.056,VALID,-0.0849042,VALID,19.8988,VALID,354,VALID,1.09799,
2001-08-08, 02:09:01,VALID,917.443,VALID,0,VALID,93.0789,VALID,0,VALID,19.8923,VALID,359,VALID,0.866554,
2001-08-08, 02:10:01,VALID,917.443,VALID,0,VALID,93.0738,VALID,0,VALID,19.8856,VALID,3,VALID,0.617647,
2001-08-08, 02:11:01,VALID,917.444,VALID,0,VALID,93.1399,VALID,-0.0169808,VALID,19.9015,VALID,29,VALID,0.416174,
2001-08-08, 02:12:00,VALID,917.455,VALID,0,VALID,93.1221,VALID,-0.0169808,VALID,19.9216,VALID,18,VALID,0.631104,
2001-08-08, 02:13:01,VALID,917.445,VALID,0,VALID,93.0916,VALID,0,VALID,19.9276,VALID,18,VALID,0.500801,
2001-08-08, 02:14:00,VALID,917.457,VALID,0,VALID,93.0052,VALID,-0.118866,VALID,19.942,VALID,32,VALID,0.513839,
2001-08-08, 02:15:01,VALID,917.462,VALID,0,VALID,93.0357,VALID,-0.101885,VALID,19.9584,VALID,15,VALID,0.569046,
2001-08-08, 02:16:01,VALID,917.443,VALID,0,VALID,92.9772,VALID,-0.118866,VALID,19.9716,VALID,10,VALID,0.427849,
2001-08-08, 02:17:01,VALID,917.445,VALID,0,VALID,92.9683,VALID,-0.101885,VALID,19.9614,VALID,18,VALID,0.600718,
2001-08-08, 02:18:01,VALID,917.425,VALID,0,VALID,93.0484,VALID,-0.101885,VALID,19.978,VALID,6,VALID,0.550164,
2001-08-08, 02:19:01,VALID,917.404,VALID,0,VALID,92.9937,VALID,-0.101885,VALID,19.9743,VALID,16,VALID,0.58861,
2001-08-08, 02:20:01,VALID,917.407,VALID,0,VALID,92.925,VALID,-0.135847,VALID,19.9743,VALID,29,VALID,0.613616,
2001-08-08, 02:21:01,VALID,917.394,VALID,0,VALID,92.9594,VALID,-0.101885,VALID,19.9706,VALID,21,VALID,0.745355,
2001-08-08, 02:22:01,VALID,917.359,VALID,0,VALID,93.098,VALID,-0.0849042,VALID,19.9778,VALID,15,VALID,0.765165,
2001-08-08, 02:23:01,VALID,917.338,VALID,0,VALID,93.0916,VALID,-0.118866,VALID,19.9681,VALID,9,VALID,0.85473,
2001-08-08, 02:24:01,VALID,917.337,VALID,0,VALID,93.0077,VALID,-0.101885,VALID,19.9418,VALID,353,VALID,0.658447,
2001-08-08, 02:25:01,VALID,917.308,VALID,0,VALID,93.1082,VALID,-0.101885,VALID,19.9261,VALID,352,VALID,0.679087,
2001-08-08, 02:26:01,VALID,917.286,VALID,0,VALID,93.1934,VALID,-0.101885,VALID,19.9027,VALID,360,VALID,0.669196,
2001-08-08, 02:27:01,VALID,917.275,VALID,0,VALID,93.3002,VALID,-0.118866,VALID,19.8831,VALID,5,VALID,0.521748,
2001-08-08, 02:28:01,VALID,917.265,VALID,0,VALID,93.3803,VALID,-0.0849042,VALID,19.8896,VALID,7,VALID,0.620634,
2001-08-08, 02:29:01,VALID,917.272,VALID,0,VALID,93.3803,VALID,0,VALID,19.8759,VALID,20,VALID,0.843328,
2001-08-08, 02:30:01,VALID,917.288,VALID,0,VALID,93.5011,VALID,-0.0169808,VALID,19.8627,VALID,15,VALID,0.655222,
2001-08-08, 02:31:01,VALID,917.293,VALID,0,VALID,93.6028,VALID,-0.0169808,VALID,19.863,VALID,13,VALID,0.425164,
2001-08-08, 02:32:01,VALID,917.329,VALID,0,VALID,93.6549,VALID,-0.0169808,VALID,19.857,VALID,10,VALID,0.377232,
2001-08-08, 02:33:01,VALID,917.358,VALID,0,VALID,93.6944,VALID,-0.0169808,VALID,19.8406,VALID,10,VALID,0.661318,
2001-08-08, 02:34:01,VALID,917.372,VALID,0,VALID,93.6982,VALID,-0.0169808,VALID,19.8339,VALID,354,VALID,0.57307,
2001-08-08, 02:35:01,VALID,917.406,VALID,0,VALID,93.8037,VALID,-0.0169808,VALID,19.8279,VALID,9,VALID,0.872889,
2001-08-08, 02:36:01,VALID,917.41,VALID,0,VALID,93.9118,VALID,-0.0169808,VALID,19.811,VALID,354,VALID,0.595215,
2001-08-08, 02:37:00,VALID,917.42,VALID,0,VALID,93.9525,VALID,-0.0509425,VALID,19.8212,VALID,342,VALID,0.353966,
2001-08-08, 02:38:00,VALID,917.41,VALID,0,VALID,93.9436,VALID,0,VALID,19.8212,VALID,2,VALID,0.258482,
2001-08-08, 02:39:00,VALID,917.406,VALID,0,VALID,94.0275,VALID,0,VALID,19.8309,VALID,15,VALID,0.0194257,
2001-08-08, 02:40:00,VALID,917.383,VALID,0,VALID,94.025,VALID,0,VALID,19.8471,VALID,15,VALID,0.0443474,
2001-08-08, 02:41:00,VALID,917.364,VALID,0,VALID,94.0606,VALID,0,VALID,19.8568,VALID,15,VALID,0.00443412,
2001-08-08, 02:42:00,VALID,917.349,VALID,0,VALID,94.0631,VALID,0,VALID,19.8597,VALID,15,VALID,0.00205592,
2001-08-08, 02:43:00,VALID,917.332,VALID,0,VALID,93.9818,VALID,-0.0169808,VALID,19.8756,VALID,15,VALID,0.0337171,
2001-08-08, 02:44:00,VALID,917.333,VALID,0,VALID,93.9881,VALID,-0.0339617,VALID,19.8761,VALID,15,VALID,0.0441964,
2001-08-08, 02:45:00,VALID,917.339,VALID,0,VALID,94.0364,VALID,-0.0339617,VALID,19.8766,VALID,357,VALID,0.230574,
2001-08-08, 02:46:00,VALID,917.322,VALID,0,VALID,94.0097,VALID,-0.0169808,VALID,19.8796,VALID,340,VALID,0.259651,
2001-08-08, 02:47:00,VALID,917.318,VALID,0,VALID,93.9487,VALID,-0.0509425,VALID,19.8662,VALID,20,VALID,0.701436,
2001-08-08, 02:48:00,VALID,917.3,VALID,0,VALID,94.0809,VALID,-0.0169808,VALID,19.8667,VALID,31,VALID,0.429443,
2001-08-08, 02:49:00,VALID,917.291,VALID,0,VALID,94.0555,VALID,0,VALID,19.8441,VALID,3,VALID,0.488381,
2001-08-08, 02:50:00,VALID,917.274,VALID,0,VALID,94.1382,VALID,-0.0339617,VALID,19.8309,VALID,1,VALID,0.865848,
2001-08-08, 02:51:00,VALID,917.274,VALID,0,VALID,94.1788,VALID,-0.0169808,VALID,19.8245,VALID,2,VALID,0.701647,
2001-08-08, 02:52:00,VALID,917.274,VALID,0,VALID,94.2081,VALID,-0.0169808,VALID,19.8153,VALID,24,VALID,0.476103,
2001-08-08, 02:53:00,VALID,917.277,VALID,0,VALID,94.2246,VALID,-0.0339617,VALID,19.7919,VALID,7,VALID,0.720017,
2001-08-08, 02:54:00,VALID,917.274,VALID,0,VALID,94.2424,VALID,-0.0169808,VALID,19.7795,VALID,357,VALID,0.628084,
2001-08-08, 02:55:00,VALID,917.274,VALID,0,VALID,94.3391,VALID,-0.0169808,VALID,19.77,VALID,12,VALID,0.961554,
2001-08-08, 02:56:00,VALID,917.273,VALID,0,VALID,94.4065,VALID,-0.0169808,VALID,19.7566,VALID,16,VALID,0.73192,
2001-08-08, 02:57:00,VALID,917.259,VALID,0,VALID,94.4433,VALID,0,VALID,19.7658,VALID,17,VALID,0.649282,
2001-08-08, 02:58:00,VALID,917.231,VALID,0,VALID,94.3442,VALID,-0.0679233,VALID,19.7666,VALID,30,VALID,0.727711,
2001-08-08, 02:59:00,VALID,917.225,VALID,0,VALID,94.3556,VALID,0,VALID,19.7435,VALID,8,VALID,1.03906,
2001-08-08, 03:00:00,VALID,917.209,VALID,0,VALID,94.4802,VALID,0,VALID,19.7372,VALID,3,VALID,0.907959,
2001-08-08, 03:01:00,VALID,917.209,VALID,0,VALID,94.4675,VALID,-0.0509425,VALID,19.734,VALID,5,VALID,0.71895,
2001-08-08, 03:02:00,VALID,917.222,VALID,0,VALID,94.5044,VALID,0,VALID,19.7149,VALID,1,VALID,1.19643,
2001-08-08, 03:03:00,VALID,917.231,VALID,0,VALID,94.5387,VALID,-0.0169808,VALID,19.7047,VALID,7,VALID,1.10747,
2001-08-08, 03:04:00,VALID,917.245,VALID,0,VALID,94.6366,VALID,0,VALID,19.695,VALID,8,VALID,1.04113,
2001-08-08, 03:05:00,VALID,917.257,VALID,0,VALID,94.6926,VALID,0,VALID,19.6883,VALID,354,VALID,1.0739,
2001-08-08, 03:06:00,VALID,916.85,VALID,0,VALID,94.7816,VALID,0,VALID,19.6759,VALID,7,VALID,1.28146,
2001-08-08, 03:07:00,VALID,917.281,VALID,0,VALID,94.8248,VALID,0,VALID,19.6789,VALID,18,VALID,1.40769,
2001-08-08, 03:08:00,VALID,917.303,VALID,0,VALID,94.8337,VALID,0,VALID,19.6724,VALID,19,VALID,1.32545,
2001-08-08, 03:09:00,VALID,917.299,VALID,0,VALID,94.8515,VALID,0,VALID,19.6826,VALID,3,VALID,1.0171,
2001-08-08, 03:10:00,VALID,917.286,VALID,0,VALID,94.9304,VALID,0,VALID,19.6597,VALID,5,VALID,1.12707,
2001-08-08, 03:11:00,VALID,917.286,VALID,0,VALID,94.9812,VALID,0,VALID,19.653,VALID,16,VALID,1.13936,
2001-08-08, 03:12:00,VALID,917.276,VALID,0,VALID,95.0601,VALID,0,VALID,19.6667,VALID,16,VALID,0.70459,
2001-08-08, 03:13:00,VALID,917.272,VALID,0,VALID,95.069,VALID,-0.0169808,VALID,19.6627,VALID,8,VALID,1.16126,
2001-08-08, 03:14:00,VALID,917.27,VALID,0,VALID,95.0779,VALID,0,VALID,19.663,VALID,7,VALID,1.18951,
2001-08-08, 03:15:00,VALID,917.266,VALID,0,VALID,95.0563,VALID,0,VALID,19.6567,VALID,19,VALID,0.791174,
2001-08-08, 03:16:00,VALID,917.286,VALID,0,VALID,95.0677,VALID,-0.0169808,VALID,19.6662,VALID,356,VALID,0.957261,
2001-08-08, 03:17:00,VALID,917.284,VALID,0,VALID,95.0779,VALID,0.0169808,VALID,19.6694,VALID,6,VALID,1.00929,
2001-08-08, 03:18:00,VALID,917.267,VALID,0,VALID,95.1122,VALID,0,VALID,19.6659,VALID,3,VALID,1.41098,
2001-08-08, 03:19:00,VALID,917.264,VALID,0,VALID,95.0982,VALID,-0.0169808,VALID,19.6784,VALID,4,VALID,1.19593,
2001-08-08, 03:20:00,VALID,917.258,VALID,0,VALID,95.0448,VALID,0.0169808,VALID,19.6885,VALID,346,VALID,0.667188,
2001-08-08, 03:21:00,VALID,917.254,VALID,0,VALID,94.9965,VALID,0,VALID,19.7049,VALID,351,VALID,0.66364,
2001-08-08, 03:22:00,VALID,917.25,VALID,0,VALID,94.9889,VALID,0,VALID,19.7144,VALID,3,VALID,0.751149,
2001-08-08, 03:23:00,VALID,917.245,VALID,0,VALID,94.9138,VALID,0.0339617,VALID,19.7211,VALID,5,VALID,0.592272,
2001-08-08, 03:24:00,VALID,917.245,VALID,0,VALID,94.8719,VALID,0,VALID,19.7206,VALID,352,VALID,1.00952,
2001-08-08, 03:25:00,VALID,917.231,VALID,0,VALID,94.8159,VALID,0,VALID,19.7437,VALID,356,VALID,0.955929,
2001-08-08, 03:26:00,VALID,917.226,VALID,0,VALID,94.7549,VALID,0,VALID,19.7464,VALID,337,VALID,0.894196,
2001-08-08, 03:27:00,VALID,917.228,VALID,0,VALID,94.6951,VALID,-0.0169808,VALID,19.7698,VALID,338,VALID,0.797931,
2001-08-08, 03:28:00,VALID,917.214,VALID,0,VALID,94.7066,VALID,0,VALID,19.7956,VALID,12,VALID,0.848116,
2001-08-08, 03:29:00,VALID,917.212,VALID,0,VALID,94.6036,VALID,-0.101885,VALID,19.8101,VALID,6,VALID,1.17948,
2001-08-08, 03:30:00,VALID,917.195,VALID,0,VALID,94.4408,VALID,-0.118866,VALID,19.8168,VALID,4,VALID,1.23047,
2001-08-08, 03:31:00,VALID,917.183,VALID,0,VALID,94.3734,VALID,-0.101885,VALID,19.8225,VALID,14,VALID,1.03495,
2001-08-08, 03:32:00,VALID,917.174,VALID,0,VALID,94.3505,VALID,-0.0849042,VALID,19.8255,VALID,360,VALID,0.69933,
2001-08-08, 03:33:00,VALID,917.152,VALID,0,VALID,94.3225,VALID,-0.118866,VALID,19.8289,VALID,352,VALID,0.80152,
2001-08-08, 03:34:00,VALID,917.149,VALID,0,VALID,94.3353,VALID,-0.101885,VALID,19.8255,VALID,337,VALID,0.9375,
2001-08-08, 03:35:00,VALID,917.129,VALID,0,VALID,94.4001,VALID,-0.118866,VALID,19.8327,VALID,347,VALID,1.05068,